GW0149 Weather Reports


time (UTC)temp
F
wind
direction
speed
knots
gust
knots
rain 1hr
in
rain 24hr
in
rain mn
in
humidity
%
barometer
mb
20260504205052 79 63 2.6 5.2 0.00 0.00 0.00 48 1017.1
20260504204550 79 132 3.5 4.3 0.00 0.00 0.00 47 1017.2
20260504204049 79 242 4.3 5.2 0.00 0.00 0.00 47 1017.1
20260504203547 79 135 2.6 7.0 0.00 0.00 0.00 50 1017.2
20260504203044 79 209 1.7 4.3 0.00 0.00 0.00 48 1017.2
20260504202539 78 242 3.5 4.3 0.00 0.00 0.00 50 1017.2
20260504202037 79 247 4.3 13.0 0.00 0.00 0.00 47 1017.3
20260504201533 79 206 0.9 3.5 0.00 0.00 0.00 48 1017.6
20260504201031 78 90 0.0 3.5 0.00 0.00 0.00 50 1017.8
20260504200527 79 111 2.6 3.5 0.00 0.00 0.00 48 1017.7
20260504200024 79 233 0.0 6.1 0.00 0.00 0.00 47 1017.9
20260504195520 79 234 7.0 10.4 0.00 0.00 0.00 47 1017.8
20260504195017 79 196 3.5 6.1 0.00 0.00 0.00 46 1017.9
20260504194514 79 239 3.5 8.7 0.00 0.00 0.00 46 1018.1
20260504194009 80 236 3.5 6.1 0.00 0.00 0.00 48 1018.2
20260504193506 79 255 2.6 5.2 0.00 0.00 0.00 48 1018.1
20260504193005 78 236 0.0 3.5 0.00 0.00 0.00 46 1018.3
20260504192502 78 121 2.6 8.7 0.00 0.00 0.00 50 1018.3
20260504192001 78 90 0.0 5.2 0.00 0.00 0.00 46 1018.1
20260504191458 78 351 4.3 7.8 0.00 0.00 0.00 47 1018.3
20260504190954 78 237 2.6 11.3 0.00 0.00 0.00 48 1018.4
20260504190449 78 248 0.0 5.2 0.00 0.00 0.00 49 1018.4
20260504185946 78 225 3.5 7.0 0.00 0.00 0.00 47 1018.5
20260504185443 78 248 4.3 6.1 0.00 0.00 0.00 47 1018.6
20260504184939 78 278 4.3 5.2 0.00 0.00 0.00 46 1018.5
20260504184435 77 219 3.5 8.7 0.00 0.00 0.00 48 1018.6
20260504183931 78 112 0.0 3.5 0.00 0.00 0.00 48 1018.6
20260504183429 79 45 4.3 13.0 0.00 0.00 0.00 48 1018.7
20260504182927 78 90 1.7 8.7 0.00 0.00 0.00 47 1018.6
20260504182423 78 270 1.7 3.5 0.00 0.00 0.00 52 1019.0
20260504181920 77 242 4.3 9.6 0.00 0.00 0.00 52 1018.9
20260504181417 77 255 2.6 7.0 0.00 0.00 0.00 50 1018.9
20260504180916 77 206 1.7 2.6 0.00 0.00 0.00 49 1019.1
20260504180415 77 180 1.7 1.7 0.00 0.00 0.00 49 1018.8
20260504175912 76 108 3.5 8.7 0.00 0.00 0.00 51 1019.2
20260504175409 77 249 2.6 4.3 0.00 0.00 0.00 51 1019.1
20260504174907 77 225 3.5 6.1 0.00 0.00 0.00 50 1019.2
20260504174404 77 265 1.7 9.6 0.00 0.00 0.00 51 1019.4
20260504173901 77 37 0.0 5.2 0.00 0.00 0.00 50 1019.3
20260504173357 77 241 2.6 7.8 0.00 0.00 0.00 49 1019.4
20260504172855 76 70 0.0 3.5 0.00 0.00 0.00 49 1019.6
20260504172351 76 235 2.6 5.2 0.00 0.00 0.00 50 1019.5
20260504171847 77 205 4.3 5.2 0.00 0.00 0.00 50 1019.5
20260504171345 76 221 1.7 6.1 0.00 0.00 0.00 55 1019.4
20260504170842 77 54 0.0 2.6 0.00 0.00 0.00 50 1019.6
20260504170338 75 255 1.7 3.5 0.00 0.00 0.00 52 1019.6
20260504160257 75 90 1.7 3.5 0.00 0.00 0.00 57 1020.2
20260504150722 72 180 0.0 4.3 0.00 0.00 0.00 64 1020.6
20260504150219 71 236 3.5 4.3 0.00 0.00 0.00 66 1020.7
20260504141148 69 198 1.7 3.5 0.00 0.00 0.00 73 1020.7
20260504140645 68 162 1.7 3.5 0.00 0.00 0.00 75 1020.8
20260504140140 68 261 0.0 3.5 0.00 0.00 0.00 74 1020.8
20260504130609 61 120 0.9 2.6 0.00 0.00 0.00 84 1020.5
20260504130105 60 109 1.7 2.6 0.00 0.00 0.00 87 1020.5
20260504110456 52 110 1.7 1.7 0.00 0.00 0.00 96 1020.2
20260504100419 52 90 0.0 0.9 0.00 0.00 0.00 97 1020.0
20260504081812 54 115 1.7 2.6 0.00 0.00 0.00 95 1020.1
20260504081309 54 105 0.9 2.6 0.00 0.00 0.00 97 1020.1
20260504080805 53 103 0.9 1.7 0.00 0.00 0.00 97 1020.2
20260504080301 53 106 0.9 1.7 0.00 0.00 0.00 97 1020.2
20260504070229 53 180 0.0 0.9 0.00 0.00 0.00 97 1020.8
20260504060149 54 110 1.7 1.7 0.00 0.00 0.00 96 1021.3
20260504050618 54 110 1.7 2.6 0.00 0.00 0.00 95 1021.5
20260504050115 55 90 0.0 1.7 0.00 0.00 0.00 95 1021.6
20260504045612 55 111 0.9 2.6 0.00 0.00 0.00 95 1021.6
20260504045106 55 109 2.6 2.6 0.00 0.00 0.00 95 1021.3
20260504044605 55 90 1.7 2.6 0.00 0.00 0.00 95 1021.6
20260504044101 55 95 1.7 1.7 0.00 0.00 0.00 94 1021.5
20260504043558 55 114 1.7 1.7 0.00 0.00 0.00 94 1021.5
20260504043055 55 105 2.6 2.6 0.00 0.00 0.00 94 1021.5
20260504042552 55 95 1.7 2.6 0.00 0.00 0.00 94 1021.5
20260504042049 55 99 1.7 1.7 0.00 0.00 0.00 93 1021.4
20260504041545 55 102 0.9 1.7 0.00 0.00 0.00 93 1021.6
20260504041041 55 110 1.7 2.6 0.00 0.00 0.00 93 1021.4
20260504040539 55 105 1.7 2.6 0.00 0.00 0.00 93 1021.5
20260504040035 56 94 1.7 2.6 0.00 0.00 0.00 93 1021.5
20260504035532 56 110 1.7 1.7 0.00 0.00 0.00 92 1021.6
20260504035029 56 106 1.7 2.6 0.00 0.00 0.00 92 1021.7
20260504034527 56 103 1.7 2.6 0.00 0.00 0.00 92 1021.5
20260504034023 56 108 2.6 2.6 0.00 0.00 0.00 92 1021.6
20260504033521 56 105 2.6 2.6 0.00 0.00 0.00 92 1021.8
20260504033018 56 110 1.7 2.6 0.00 0.00 0.00 92 1021.8
20260504032515 57 108 2.6 2.6 0.00 0.00 0.00 92 1021.5
20260504032012 57 98 1.7 2.6 0.00 0.00 0.00 91 1021.7
20260504031509 57 123 0.0 2.6 0.00 0.00 0.00 91 1021.6
20260504031005 57 114 1.7 2.6 0.00 0.00 0.00 91 1021.7
20260504030503 57 122 2.6 2.6 0.00 0.00 0.00 91 1021.8
20260504025958 57 114 1.7 2.6 0.00 0.00 0.00 91 1021.9
20260504025455 57 114 1.7 2.6 0.00 0.00 0.00 91 1021.9
20260504024952 57 105 0.9 1.7 0.00 0.00 0.00 90 1021.7
20260504024449 57 105 1.7 1.7 0.00 0.00 0.00 90 1021.7
20260504023946 58 114 1.7 1.7 0.00 0.00 0.00 91 1021.8
20260504023443 58 96 1.7 1.7 0.00 0.00 0.00 90 1021.9
20260504022938 58 112 2.6 2.6 0.00 0.00 0.00 90 1021.6
20260504022435 58 112 1.7 2.6 0.00 0.00 0.00 90 1021.5
20260504021932 59 109 1.7 1.7 0.00 0.00 0.00 89 1021.5
20260504021429 59 160 0.9 2.6 0.00 0.00 0.00 88 1021.6
20260504020926 59 105 1.7 2.6 0.00 0.00 0.00 88 1021.5
20260504020423 59 114 0.0 2.6 0.00 0.00 0.00 88 1021.5
20260504015919 59 115 1.7 2.6 0.00 0.00 0.00 87 1021.3
20260504015415 59 103 1.7 1.7 0.00 0.00 0.00 86 1021.5
20260504014912 59 105 0.0 1.7 0.00 0.00 0.00 85 1021.4
20260504014408 60 115 1.7 1.7 0.00 0.00 0.00 86 1021.3
20260504013905 60 106 1.7 2.6 0.00 0.00 0.00 85 1021.2
20260504013403 60 112 2.6 2.6 0.00 0.00 0.00 84 1021.4
20260504012859 61 111 2.6 2.6 0.00 0.00 0.00 84 1021.2
20260504012357 61 123 0.0 2.6 0.00 0.00 0.00 83 1021.2
20260504011854 62 108 1.7 1.7 0.00 0.00 0.00 81 1021.2
20260504011351 62 122 2.6 2.6 0.00 0.00 0.00 80 1021.0
20260504010847 62 129 1.7 2.6 0.00 0.00 0.00 79 1021.0
20260504010342 62 117 1.7 2.6 0.00 0.00 0.00 79 1020.9
20260504005839 63 115 1.7 1.7 0.00 0.00 0.00 78 1020.8
20260504005336 64 124 1.7 2.6 0.00 0.00 0.00 78 1020.9
20260504004833 64 172 0.0 2.6 0.00 0.00 0.00 77 1020.7
20260504004331 65 130 2.6 2.6 0.00 0.00 0.00 72 1020.8
20260504003827 65 121 1.7 2.6 0.00 0.00 0.00 72 1020.8
20260504003324 66 129 1.7 2.6 0.00 0.00 0.00 71 1020.8
20260504002821 66 115 1.7 2.6 0.00 0.00 0.00 71 1020.6
20260504002318 67 125 2.6 2.6 0.00 0.00 0.00 74 1020.6
20260504001816 67 125 1.7 2.6 0.00 0.00 0.00 70 1020.6
20260504001313 68 131 0.0 1.7 0.00 0.00 0.00 67 1020.7
20260504000809 69 123 1.7 1.7 0.00 0.00 0.00 67 1020.7
20260504000306 70 135 1.7 2.6 0.00 0.00 0.00 62 1020.5
20260503235804 70 157 0.0 1.7 0.00 0.00 0.00 60 1020.8
20260503235304 71 140 0.0 1.7 0.00 0.00 0.00 61 1020.7
20260503234759 72 175 0.9 0.9 0.00 0.00 0.00 57 1020.7
20260503234257 73 114 0.0 0.9 0.00 0.00 0.00 57 1020.6
20260503233754 73 216 1.7 2.6 0.00 0.00 0.00 50 1020.6
20260503233249 74 209 1.7 1.7 0.00 0.00 0.00 52 1020.7
20260503232747 74 7 2.6 4.3 0.00 0.00 0.00 47 1020.9
20260503232244 74 352 1.7 2.6 0.00 0.00 0.00 47 1020.8
20260503231742 75 14 0.9 3.5 0.00 0.00 0.00 47 1020.9
20260503231239 75 270 0.9 3.5 0.00 0.00 0.00 46 1021.0
20260503230734 75 357 2.6 4.3 0.00 0.00 0.00 46 1021.0
20260503230232 76 235 1.7 2.6 0.00 0.00 0.00 46 1021.0
20260503225729 75 309 1.7 4.3 0.00 0.00 0.00 47 1020.8
20260503225229 75 349 3.5 7.0 0.00 0.00 0.00 48 1020.8
20260503224726 76 289 3.5 4.3 0.00 0.00 0.00 45 1021.0
20260503224224 74 74 0.9 4.3 0.00 0.00 0.00 47 1021.1
20260503223722 75 301 1.7 2.6 0.00 0.00 0.00 47 1021.1
20260503223219 76 324 1.7 4.3 0.00 0.00 0.00 47 1021.1
20260503222715 76 261 0.0 5.2 0.00 0.00 0.00 47 1021.2
20260503222213 75 234 3.5 4.3 0.00 0.00 0.00 46 1021.2
20260503221712 75 308 4.3 5.2 0.00 0.00 0.00 46 1021.3
20260503221209 75 221 0.0 7.0 0.00 0.00 0.00 47 1021.2
20260503220705 75 16 2.6 2.6 0.00 0.00 0.00 47 1021.1
20260503220202 74 9 3.5 4.3 0.00 0.00 0.00 48 1021.1
20260503215659 73 8 1.7 3.5 0.00 0.00 0.00 51 1021.4
20260503215155 74 0 1.7 2.6 0.00 0.00 0.00 49 1021.2
20260503214654 74 82 0.0 3.5 0.00 0.00 0.00 45 1021.5
20260503214149 75 173 0.0 2.6 0.00 0.00 0.00 44 1021.4
20260503213643 74 5 0.9 2.6 0.00 0.00 0.00 47 1021.5
20260503213140 74 341 4.3 6.1 0.00 0.00 0.00 45 1021.5
20260503212637 76 241 2.6 4.3 0.00 0.00 0.00 44 1021.5
20260503212135 75 342 0.9 4.3 0.00 0.00 0.00 44 1021.6
20260503211632 75 279 1.7 7.8 0.00 0.00 0.00 43 1021.6
20260503211127 75 1 6.1 6.1 0.00 0.00 0.00 46 1021.7
20260503210624 75 289 7.0 9.6 0.00 0.00 0.00 45 1021.8
20260503210121 75 315 2.6 4.3 0.00 0.00 0.00 43 1021.8
20260503205616 76 349 5.2 7.0 0.00 0.00 0.00 47 1022.1